View from above orbital plane
|
View from above satellite
|
Ground track
|
The orbit data is extracted from the following two-line orbital elements,
1 20046U 89042B 21020.15644849 .00000111 00000-0 94454-4 0 9994
2 20046 82.9358 44.6355 0041679 348.7233 11.2986 13.78209642590095
Epoch (UTC): | 20 January 2021 03:45:17 |
Eccentricity: | 0.0041679 |
inclination: | 82.9358° |
perigee height: | 939 km |
apogee height: | 1001 km |
right ascension of ascending node: | 44.6355° |
argument of perigee: | 348.7233° |
revolutions per day: | 13.78209642 |
mean anomaly at epoch: | 11.2986° |
orbit number at epoch: | 59009 |
The dashed part of the orbit path shows where the satellite is in the earth's shadow,
|
|